Climatologie pour Saint-Brevin les Pins
Jour • Résumé pour janvier 04, 2018 Système :  Anglais    Métrique   Mixte
« - 1 jour
+ 1 jour »
Jour Semaine Mois Année Personnalisé
  Maximum : Minimum : Moyenne :
Température sous abri : 55.6 °F 50.4 °F 53.4 °F
Point de rosée : 54.3 °F 49.3 °F 52.5 °F
Humidité : 98% 94% 97%
Vitesse du vent : 32mph 1mph 10.1mph
Rafale : 33mph - -
Direction - - West
Pression : 29.9 in 29.7 in -
Précipitations : 0.1 in    
Historical Graphs
 
 
Tableau de données pour janvier 04, 2018
Heure Tempé Pt rosée Pression Vent Vitesse Rafale Humidité Taux pluie (/hr) Soleil
00:00 54.5 °F 54 °F 29.9 in NW 7 mph 28 mph 98% 0 in 0 W/m2
00:10 54.5 °F 54 °F 29.9 in WSW 7 mph 24 mph 98% 0.01 in 0 W/m2
00:15 54.5 °F 54 °F 29.9 in West 19 mph 24 mph 98% 0.01 in 0 W/m2
00:25 54.5 °F 53.6 °F 29.8 in WNW 16 mph 24 mph 97% 0.01 in 0 W/m2
00:30 54.5 °F 54 °F 29.8 in WNW 10 mph 24 mph 98% 0.01 in 0 W/m2
00:40 54.5 °F 54 °F 29.8 in NW 18 mph 31 mph 98% 0.01 in 0 W/m2
00:45 54.5 °F 53.6 °F 29.8 in WSW 18 mph 31 mph 97% 0.01 in 0 W/m2
00:50 54.7 °F 53.8 °F 29.8 in WNW 8 mph 26 mph 97% 0.01 in 0 W/m2
01:00 54.7 °F 53.8 °F 29.8 in West 13 mph 23 mph 97% 0.01 in 0 W/m2
01:05 54.5 °F 53.6 °F 29.8 in WNW 9 mph 26 mph 97% 0.01 in 0 W/m2
01:10 54.5 °F 53.6 °F 29.8 in WNW 5 mph 26 mph 97% 0 in 0 W/m2
01:15 54.5 °F 53.6 °F 29.8 in WNW 18 mph 26 mph 97% 0 in 0 W/m2
01:20 54.5 °F 53.6 °F 29.8 in WNW 15 mph 26 mph 97% 0 in 0 W/m2
01:30 54.5 °F 53.6 °F 29.8 in NW 10 mph 28 mph 97% 0 in 0 W/m2
01:35 54.5 °F 53.6 °F 29.8 in NW 12 mph 33 mph 97% 0 in 0 W/m2
01:40 54.5 °F 53.6 °F 29.8 in West 11 mph 33 mph 97% 0 in 0 W/m2
01:45 54.5 °F 53.6 °F 29.8 in West 15 mph 30 mph 97% 0 in 0 W/m2
01:50 54.3 °F 53.6 °F 29.8 in NW 12 mph 30 mph 97% 0 in 0 W/m2
02:00 54.3 °F 53.6 °F 29.8 in WSW 15 mph 24 mph 97% 0 in 0 W/m2
02:05 54.3 °F 53.6 °F 29.8 in WNW 12 mph 26 mph 97% 0 in 0 W/m2
02:10 54.3 °F 53.6 °F 29.8 in West 16 mph 26 mph 97% 0 in 0 W/m2
02:15 54.3 °F 53.6 °F 29.8 in West 12 mph 24 mph 97% 0 in 0 W/m2
02:20 54.3 °F 53.6 °F 29.8 in WNW 12 mph 24 mph 97% 0 in 0 W/m2
02:25 54.3 °F 53.6 °F 29.8 in NNW 13 mph 26 mph 97% 0 in 0 W/m2
02:30 54.3 °F 53.8 °F 29.8 in WNW 20 mph 27 mph 98% 0 in 0 W/m2
02:35 54.3 °F 53.8 °F 29.8 in WNW 7 mph 27 mph 98% 0 in 0 W/m2
02:40 54.3 °F 53.6 °F 29.8 in West 20 mph 23 mph 97% 0 in 0 W/m2
02:45 54.3 °F 53.4 °F 29.8 in WSW 5 mph 22 mph 97% 0 in 0 W/m2
02:50 54.3 °F 53.8 °F 29.8 in NW 15 mph 25 mph 98% 0 in 0 W/m2
02:55 54.3 °F 53.4 °F 29.8 in West 8 mph 25 mph 97% 0 in 0 W/m2
03:00 54.3 °F 53.8 °F 29.8 in NW 9 mph 24 mph 98% 0 in 0 W/m2
03:10 54.3 °F 53.8 °F 29.8 in NW 10 mph 28 mph 98% 0 in 0 W/m2
03:20 54.3 °F 53.8 °F 29.9 in SW 4 mph 25 mph 98% 0 in 0 W/m2
03:25 54.3 °F 53.8 °F 29.8 in WSW 20 mph 26 mph 98% 0 in 0 W/m2
03:30 54.3 °F 53.8 °F 29.9 in West 13 mph 26 mph 98% 0 in 0 W/m2
03:35 54.3 °F 53.8 °F 29.9 in WNW 13 mph 26 mph 98% 0 in 0 W/m2
03:40 54.3 °F 53.8 °F 29.9 in West 10 mph 26 mph 98% 0 in 0 W/m2
03:50 54.3 °F 53.8 °F 29.9 in West 17 mph 27 mph 98% 0 in 0 W/m2
04:05 54.1 °F 53.6 °F 29.9 in WNW 22 mph 25 mph 98% 0 in 0 W/m2
04:10 54.1 °F 53.6 °F 29.8 in West 32 mph 32 mph 98% 0 in 0 W/m2
04:20 54.1 °F 53.6 °F 29.8 in SW 6 mph 28 mph 98% 0 in 0 W/m2
04:25 54.1 °F 53.6 °F 29.8 in NW 7 mph 24 mph 98% 0 in 0 W/m2
04:30 54.1 °F 53.6 °F 29.8 in WNW 14 mph 24 mph 98% 0 in 0 W/m2
04:35 54.1 °F 53.6 °F 29.8 in West 15 mph 25 mph 98% 0 in 0 W/m2
04:40 54 °F 53.4 °F 29.8 in West 10 mph 25 mph 98% 0 in 0 W/m2
04:50 54 °F 53.4 °F 29.8 in WSW 13 mph 24 mph 98% 0 in 0 W/m2
04:55 54 °F 53.1 °F 29.8 in West 12 mph 22 mph 97% 0 in 0 W/m2
05:05 54 °F 53.4 °F 29.8 in WNW 6 mph 28 mph 98% 0 in 0 W/m2
05:15 54 °F 53.4 °F 29.8 in West 15 mph 25 mph 98% 0 in 0 W/m2
05:35 54 °F 53.4 °F 29.8 in NNW 6 mph 24 mph 98% 0 in 0 W/m2
05:50 54 °F 53.4 °F 29.8 in WNW 9 mph 27 mph 98% 0 in 0 W/m2
05:55 54 °F 53.4 °F 29.8 in NW 10 mph 27 mph 98% 0 in 0 W/m2
06:00 54 °F 53.4 °F 29.8 in WSW 8 mph 21 mph 98% 0 in 0 W/m2
06:10 54 °F 53.4 °F 29.8 in WSW 6 mph 19 mph 98% 0 in 0 W/m2
06:15 54 °F 53.1 °F 29.8 in West 20 mph 21 mph 97% 0 in 0 W/m2
06:25 54 °F 53.1 °F 29.8 in WNW 9 mph 20 mph 97% 0 in 0 W/m2
06:35 54 °F 53.1 °F 29.8 in WNW 15 mph 20 mph 97% 0 in 0 W/m2
06:40 54 °F 53.1 °F 29.8 in West 8 mph 20 mph 97% 0 in 0 W/m2
06:45 54 °F 53.1 °F 29.8 in West 11 mph 19 mph 97% 0 in 0 W/m2
06:50 53.8 °F 52.9 °F 29.8 in West 11 mph 19 mph 97% 0 in 0 W/m2
06:55 54 °F 53.1 °F 29.8 in WNW 8 mph 29 mph 97% 0 in 0 W/m2
07:05 54 °F 53.2 °F 29.8 in SW 15 mph 25 mph 97% 0.01 in 0 W/m2
07:10 54 °F 53.4 °F 29.8 in WNW 10 mph 24 mph 98% 0.01 in 0 W/m2
07:15 54 °F 53.1 °F 29.8 in WNW 14 mph 24 mph 97% 0.01 in 0 W/m2
07:20 54 °F 53.2 °F 29.8 in NW 9 mph 24 mph 97% 0.01 in 0 W/m2
07:25 54 °F 53.4 °F 29.8 in WNW 10 mph 22 mph 98% 0.01 in 0 W/m2
07:30 54 °F 53.4 °F 29.8 in WNW 8 mph 22 mph 98% 0.01 in 0 W/m2
07:35 54 °F 53.4 °F 29.8 in WNW 13 mph 24 mph 98% 0.01 in 0 W/m2
07:45 54 °F 53.2 °F 29.8 in SW 8 mph 20 mph 97% 0.01 in 0 W/m2
07:50 54 °F 53.2 °F 29.8 in WSW 10 mph 20 mph 97% 0.01 in 0 W/m2
07:55 54 °F 53.4 °F 29.8 in WSW 11 mph 23 mph 98% 0.01 in 0 W/m2
08:00 54.1 °F 53.6 °F 29.8 in SW 16 mph 27 mph 98% 0 in 0 W/m2
08:05 54 °F 53.2 °F 29.8 in WSW 15 mph 27 mph 97% 0 in 0 W/m2
08:10 54 °F 53.2 °F 29.8 in WNW 15 mph 25 mph 97% 0 in 0 W/m2
08:20 54 °F 53.4 °F 29.8 in WSW 7 mph 22 mph 98% 0 in 0 W/m2
08:25 54.1 °F 53.6 °F 29.8 in West 12 mph 21 mph 98% 0 in 0 W/m2
08:30 54.1 °F 53.2 °F 29.8 in West 8 mph 22 mph 97% 0 in 0 W/m2
08:40 54 °F 53.4 °F 29.8 in SW 10 mph 22 mph 98% 0 in 0 W/m2
08:45 54 °F 53.2 °F 29.8 in WNW 8 mph 23 mph 97% 0 in 0 W/m2
08:55 54.1 °F 53.6 °F 29.8 in SW 14 mph 23 mph 98% 0 in 0 W/m2
09:05 54.1 °F 53.6 °F 29.8 in SW 13 mph 23 mph 98% 0 in 0 W/m2
09:10 54.1 °F 53.4 °F 29.8 in West 10 mph 23 mph 97% 0 in 7 W/m2
09:15 54.1 °F 53.4 °F 29.8 in West 13 mph 22 mph 97% 0 in 12 W/m2
09:35 54.1 °F 53.4 °F 29.8 in SSW 7 mph 22 mph 97% 0 in 12 W/m2
09:40 54.1 °F 53.2 °F 29.8 in WSW 10 mph 22 mph 97% 0 in 9 W/m2
09:45 54.1 °F 53.2 °F 29.8 in WNW 12 mph 23 mph 97% 0 in 11 W/m2
09:50 54.1 °F 53.4 °F 29.8 in WNW 7 mph 25 mph 97% 0 in 12 W/m2
10:00 54.1 °F 53.4 °F 29.8 in WSW 15 mph 21 mph 97% 0 in 12 W/m2
10:05 54.1 °F 53.4 °F 29.8 in WSW 21 mph 22 mph 97% 0.01 in 16 W/m2
10:10 54.3 °F 53.4 °F 29.8 in WSW 10 mph 24 mph 97% 0.01 in 16 W/m2
10:20 54.3 °F 53.6 °F 29.8 in West 4 mph 26 mph 97% 0.01 in 28 W/m2
10:25 54.3 °F 53.6 °F 29.8 in WNW 12 mph 24 mph 97% 0.01 in 26 W/m2
10:35 54.5 °F 53.6 °F 29.8 in West 16 mph 29 mph 97% 0.01 in 25 W/m2
10:40 54.5 °F 53.6 °F 29.8 in West 6 mph 29 mph 97% 0.01 in 28 W/m2
10:45 54.5 °F 53.6 °F 29.8 in WNW 14 mph 24 mph 97% 0.01 in 25 W/m2
11:00 54.7 °F 53.8 °F 29.8 in NW 11 mph 21 mph 97% 0.01 in 33 W/m2
11:05 54.7 °F 53.8 °F 29.8 in WSW 12 mph 26 mph 97% 0 in 30 W/m2
11:15 54.9 °F 54 °F 29.8 in NNW 15 mph 28 mph 97% 0 in 42 W/m2
11:20 54.9 °F 54 °F 29.8 in WNW 20 mph 28 mph 97% 0 in 51 W/m2
11:25 54.9 °F 54.1 °F 29.8 in NW 7 mph 24 mph 97% 0 in 42 W/m2
11:30 54.9 °F 54.1 °F 29.8 in WSW 12 mph 24 mph 97% 0 in 40 W/m2
11:35 54.9 °F 54.1 °F 29.8 in WNW 8 mph 23 mph 97% 0 in 44 W/m2
11:45 55 °F 54 °F 29.8 in WSW 11 mph 28 mph 96% 0 in 33 W/m2
11:50 55 °F 54 °F 29.8 in WSW 21 mph 23 mph 96% 0 in 30 W/m2
12:05 55 °F 54 °F 29.8 in West 9 mph 22 mph 96% 0 in 40 W/m2
12:10 55 °F 54 °F 29.8 in WSW 16 mph 24 mph 96% 0 in 44 W/m2
12:20 55.2 °F 54.1 °F 29.8 in West 9 mph 26 mph 96% 0 in 67 W/m2
12:35 55.4 °F 54.3 °F 29.8 in West 14 mph 27 mph 96% 0 in 56 W/m2
12:40 55.6 °F 54.1 °F 29.8 in SW 9 mph 24 mph 95% 0 in 62 W/m2
12:45 55.6 °F 54.1 °F 29.8 in West 11 mph 25 mph 95% 0 in 35 W/m2
13:00 55.6 °F 54.1 °F 29.8 in SW 7 mph 26 mph 95% 0 in 49 W/m2
13:05 55.6 °F 54.1 °F 29.8 in West 25 mph 26 mph 95% 0 in 47 W/m2
13:15 55.4 °F 53.8 °F 29.8 in West 8 mph 29 mph 94% 0 in 49 W/m2
13:20 55.4 °F 53.8 °F 29.8 in West 16 mph 29 mph 94% 0 in 54 W/m2
13:25 55.2 °F 53.6 °F 29.8 in WSW 15 mph 28 mph 94% 0 in 51 W/m2
13:30 55.2 °F 53.6 °F 29.7 in West 12 mph 24 mph 94% 0 in 46 W/m2
13:35 55.4 °F 53.8 °F 29.8 in WSW 14 mph 26 mph 94% 0 in 35 W/m2
13:40 55.2 °F 53.6 °F 29.8 in West 11 mph 27 mph 94% 0 in 37 W/m2
13:45 55.2 °F 53.6 °F 29.8 in West 13 mph 27 mph 94% 0 in 37 W/m2
13:50 55.2 °F 53.6 °F 29.7 in West 12 mph 23 mph 94% 0 in 49 W/m2
13:55 55.2 °F 53.6 °F 29.7 in WNW 9 mph 29 mph 94% 0 in 42 W/m2
14:00 55.2 °F 53.6 °F 29.7 in WSW 19 mph 29 mph 94% 0 in 39 W/m2
14:05 55.2 °F 53.8 °F 29.7 in SW 12 mph 27 mph 95% 0 in 39 W/m2
14:10 55.2 °F 53.8 °F 29.7 in WSW 22 mph 25 mph 95% 0 in 32 W/m2
14:15 55.2 °F 53.8 °F 29.7 in WSW 17 mph 25 mph 95% 0 in 37 W/m2
14:20 55 °F 53.8 °F 29.7 in WSW 8 mph 29 mph 95% 0 in 37 W/m2
14:25 55 °F 53.8 °F 29.7 in SW 10 mph 29 mph 95% 0.02 in 37 W/m2
14:30 55 °F 53.6 °F 29.7 in NW 13 mph 27 mph 95% 0.02 in 25 W/m2
14:35 54.9 °F 53.4 °F 29.7 in WNW 8 mph 27 mph 95% 0.02 in 9 W/m2
14:45 53.4 °F 51.8 °F 29.7 in WNW 9 mph 23 mph 94% 0.06 in 23 W/m2
14:50 52.9 °F 51.1 °F 29.7 in WNW 5 mph 22 mph 94% 0.06 in 44 W/m2
15:00 52.2 °F 50.5 °F 29.7 in WNW 5 mph 14 mph 94% 0.06 in 47 W/m2
15:05 52 °F 50.5 °F 29.7 in NW 7 mph 18 mph 95% 0.06 in 44 W/m2
15:10 52 °F 50.5 °F 29.7 in WNW 6 mph 20 mph 95% 0.06 in 39 W/m2
15:15 51.8 °F 50.4 °F 29.7 in WNW 8 mph 20 mph 95% 0.06 in 35 W/m2
15:20 51.6 °F 50.4 °F 29.7 in West 9 mph 17 mph 95% 0.06 in 51 W/m2
15:30 51.4 °F 50.2 °F 29.7 in West 12 mph 15 mph 95% 0.06 in 47 W/m2
15:35 51.4 °F 50.2 °F 29.7 in West 11 mph 15 mph 95% 0.05 in 56 W/m2
15:40 51.4 °F 50.2 °F 29.7 in WNW 5 mph 14 mph 95% 0.02 in 49 W/m2
15:45 51.4 °F 50.2 °F 29.7 in NW 2 mph 17 mph 95% 0.02 in 54 W/m2
15:50 51.4 °F 50 °F 29.7 in West 5 mph 17 mph 95% 0.02 in 46 W/m2
16:00 51.4 °F 50 °F 29.7 in NW 5 mph 14 mph 95% 0.02 in 37 W/m2
16:05 51.4 °F 50 °F 29.7 in West 4 mph 14 mph 95% 0.01 in 39 W/m2
16:15 51.4 °F 50.4 °F 29.7 in WNW 3 mph 14 mph 96% 0.01 in 35 W/m2
16:20 51.3 °F 50.2 °F 29.7 in West 7 mph 12 mph 96% 0.01 in 23 W/m2
16:25 51.3 °F 50.2 °F 29.7 in West 6 mph 12 mph 96% 0 in 28 W/m2
16:40 51.3 °F 50.2 °F 29.7 in West 6 mph 16 mph 96% 0.01 in 23 W/m2
16:55 51.1 °F 50 °F 29.7 in West 3 mph 13 mph 96% 0.01 in 25 W/m2
17:00 51.1 °F 49.8 °F 29.7 in West 5 mph 13 mph 96% 0.01 in 19 W/m2
17:05 51.1 °F 49.8 °F 29.8 in West 3 mph 13 mph 96% 0.01 in 23 W/m2
17:10 50.7 °F 49.6 °F 29.8 in WNW 5 mph 11 mph 96% 0.01 in 19 W/m2
17:15 50.5 °F 49.5 °F 29.8 in WNW 6 mph 11 mph 96% 0.01 in 14 W/m2
17:30 50.4 °F 49.3 °F 29.7 in WSW 6 mph 10 mph 96% 0 in 5 W/m2
17:35 50.4 °F 49.3 °F 29.8 in WSW 7 mph 10 mph 96% 0 in 0 W/m2
17:50 50.4 °F 49.3 °F 29.8 in WSW 2 mph 12 mph 96% 0 in 0 W/m2
18:00 50.5 °F 49.5 °F 29.8 in WSW 9 mph 13 mph 96% 0 in 0 W/m2
18:25 50.7 °F 50 °F 29.8 in West 4 mph 13 mph 97% 0 in 0 W/m2
18:35 50.7 °F 49.6 °F 29.8 in WSW 6 mph 12 mph 96% 0 in 0 W/m2
18:40 50.7 °F 49.6 °F 29.8 in WNW 5 mph 14 mph 96% 0 in 0 W/m2
18:50 50.5 °F 49.8 °F 29.8 in West 4 mph 15 mph 97% 0 in 0 W/m2
18:55 50.5 °F 49.8 °F 29.8 in WNW 6 mph 15 mph 97% 0 in 0 W/m2
19:05 50.5 °F 49.8 °F 29.8 in West 7 mph 10 mph 97% 0 in 0 W/m2
19:10 50.7 °F 49.8 °F 29.8 in WSW 2 mph 11 mph 97% 0 in 0 W/m2
19:20 51.1 °F 50.2 °F 29.8 in WSW 8 mph 12 mph 97% 0 in 0 W/m2
19:25 51.1 °F 50.2 °F 29.8 in WSW 11 mph 12 mph 97% 0 in 0 W/m2
19:30 51.3 °F 50.4 °F 29.8 in SW 8 mph 12 mph 97% 0 in 0 W/m2
19:35 51.3 °F 50.4 °F 29.8 in West 5 mph 15 mph 97% 0 in 0 W/m2
19:45 51.4 °F 50.5 °F 29.8 in WSW 5 mph 17 mph 97% 0 in 0 W/m2
20:00 51.4 °F 50.7 °F 29.8 in WSW 7 mph 13 mph 97% 0 in 0 W/m2
20:05 51.4 °F 50.7 °F 29.8 in WNW 4 mph 14 mph 97% 0 in 0 W/m2
20:10 51.4 °F 50.7 °F 29.8 in West 6 mph 14 mph 97% 0 in 0 W/m2
20:25 51.4 °F 50.7 °F 29.8 in West 4 mph 13 mph 97% 0 in 0 W/m2
20:30 51.4 °F 50.7 °F 29.8 in SW 7 mph 13 mph 97% 0 in 0 W/m2
20:45 51.4 °F 50.7 °F 29.7 in WSW 4 mph 13 mph 97% 0 in 0 W/m2
20:50 51.4 °F 50.7 °F 29.7 in WSW 6 mph 13 mph 97% 0 in 0 W/m2
20:55 51.4 °F 50.7 °F 29.7 in SW 4 mph 14 mph 97% 0 in 0 W/m2
21:10 51.3 °F 50.5 °F 29.7 in WSW 4 mph 13 mph 97% 0 in 0 W/m2
21:20 51.4 °F 50.5 °F 29.7 in SSW 3 mph 12 mph 97% 0 in 0 W/m2
21:25 51.4 °F 50.5 °F 29.7 in SW 1 mph 12 mph 97% 0 in 0 W/m2
21:40 51.4 °F 50.5 °F 29.7 in SW 2 mph 9 mph 97% 0 in 0 W/m2
21:45 51.3 °F 50.5 °F 29.7 in WSW 4 mph 14 mph 97% 0 in 0 W/m2
21:50 51.3 °F 50.5 °F 29.7 in WSW 10 mph 14 mph 97% 0 in 0 W/m2
21:55 51.4 °F 50.5 °F 29.7 in WSW 9 mph 13 mph 97% 0 in 0 W/m2
22:45 51.6 °F 50.9 °F 29.7 in West 5 mph 16 mph 97% 0 in 0 W/m2
23:15 51.8 °F 50.9 °F 29.7 in SW 6 mph 16 mph 97% 0 in 0 W/m2
23:20 51.8 °F 50.9 °F 29.7 in WSW 6 mph 16 mph 97% 0 in 0 W/m2
23:35 52 °F 51.1 °F 29.7 in SSW 5 mph 18 mph 97% 0 in 0 W/m2
23:40 52 °F 51.3 °F 29.7 in WSW 3 mph 16 mph 97% 0 in 0 W/m2
23:45 52 °F 51.3 °F 29.7 in WSW 8 mph 16 mph 97% 0 in 0 W/m2